Flag for United Kingdom Weather past 2 weeks in Cheltenham, England, United Kingdom

Now
48 °F

Cool.


Feels Like: 45 °F
Forecast: 38 / 63 °F
Wind: 7 mph from Northwest

Location: Little Rissington

Current Time: May 26, 2015 at 3:41:34 AM

Latest Report: May 26, 2015 at 2:00 AM


Visibility: 10 mi

Pressure: 30.18 "Hg

Humidity: 91%

Dew point: 46 °F

Location of CheltenhamLocation

Historic Weather in Cheltenham — Graph

°F

Cheltenham temperature yesterday

Maximum temperature yesterday: 58 °F (at 5:00 PM)
Minimum temperature yesterday: 42 °F (at 5:00 AM)
Average temperature yesterday: 51 °F

Past Weeks' High & Low Weather Summary

 TemperatureHumidityPressure
High64 °F (May 24, 5:00 PM)100% (May 11, 2:00 AM)30.37 "Hg (May 11, 2:00 AM)
Low37 °F (May 20, 4:00 AM)47% (May 11, 3:00 PM)29.54 "Hg (May 18, 12:00 PM)
Average50 °F81%30.07 "Hg
* Reported May 11 2:00 AM — May 26 2:00 AM, Cheltenham, Weather by CustomWeather, © 2015

Note: Actual official high and low records may vary slightly from our data, if they occured in-between our weather recording intervals... More about our weather records

Advertising

Cheltenham weather history for previous 24 hours

 ConditionsComfort  
Time TempWeatherWind HumidityBarometerVisibility
2:00 AM
Tue, May 26
48 °FCool.7 mph91%30.18 "Hg10 mi
1:00 AM45 °FCool.10 mph90%30.19 "Hg11 mi
12:00 AM47 °FCool.8 mph87%30.17 "Hg12 mi
11:00 PM
Mon, May 25
47 °FCool.10 mph86%30.17 "Hg11 mi
9:00 PM53 °FCool.10 mph79%30.14 "Hg10 mi
8:00 PM55 °FCool.10 mph74%30.12 "Hg9 mi
7:00 PM56 °FCool.8 mph73%30.11 "Hg9 mi
6:00 PM56 °FCool.10 mph70%30.10 "Hg9 mi
5:00 PM58 °FCool.10 mph68%30.09 "Hg9 mi
4:00 PM56 °FCool.9 mph72%30.10 "Hg9 mi
3:00 PM57 °FCool.12 mph71%30.09 "Hg9 mi
2:00 PM55 °FCool.8 mph73%30.10 "Hg9 mi
1:00 PM54 °FCool.7 mph75%30.11 "Hg11 mi
12:00 PM54 °FCool.10 mph74%30.11 "Hg10 mi
11:00 AM54 °FCool.9 mph75%30.11 "Hg9 mi
10:00 AM52 °FCool.9 mph75%30.11 "Hg10 mi
9:00 AM52 °FCool.8 mph78%30.12 "Hg10 mi
8:00 AM48 °FCool.7 mph88%30.12 "Hg9 mi
7:00 AM46 °FCool.6 mph90%30.12 "Hg9 mi
6:00 AM45 °FQuite cool.7 mph93%30.13 "Hg9 mi
5:00 AM42 °FQuite cool.6 mph94%30.13 "Hg6 mi
3:00 AM44 °FQuite cool.2 mph89%30.12 "Hg11 mi
Weather by CustomWeather, © 2015

See weather overviewHow to use our weather pages